Mosby, MO

5:57 AM CDT on June 24, 2017 (GMT -0500)
Clay County Regional

Weather History for KGPH - April, 2014

Change the Weather History Date:

Tuesday, April 8, 2014

  Actual Average (KMKC) Record (KMKC)
Temperature  
Mean Temperature 49 °F -  
Max Temperature 59 °F 61 °F 82 °F (2001)
Min Temperature 37 °F 42 °F 24 °F (2007)
Degree Days  
Heating Degree Days 16    
Moisture  
Dew Point 34 °F    
Average Humidity 59    
Maximum Humidity 81    
Minimum Humidity 31    
Precipitation  
Precipitation 0.00 in - - ()
Sea Level Pressure  
Sea Level Pressure 29.98 in    
Wind  
Wind Speed 9 mph (NW)    
Max Wind Speed 20 mph    
Max Gust Speed 28 mph    
Visibility 10 miles    
Events Rain    
Averages and records for this station are not official NWS values.
T = Trace of Precipitation, MM = Missing Value Source: NWS Daily Summary

Daily Weather History Graph

Daily Weather History Graph

Search for Another Location

Airport or City:

Trip Planner

Search our weather history database for the weather conditions in past years. The results will help you decide how hot, cold, wet, or windy it might be!

Date:

Astronomy

Apr. 08, 2014 Rise Set
Actual Time 6:50 AM CDT 7:48 PM CDT
Civil Twilight 6:23 AM CDT 8:15 PM CDT
Nautical Twilight 5:50 AM CDT 8:48 PM CDT
Astronomical Twilight 5:17 AM CDT 9:21 PM CDT
Moon 1:44 PM CDT (4/8) 3:02 AM CDT (4/8)
Length of Visible Light 13h 52m
Length of Day
12h 57m
Waxing Gibbous, 63% of the Moon is Illuminated
Apr 8
Waxing Gibbous
Apr 15
Full
Apr 22
Last Quarter
Apr 29
New
May 6
First Quarter

Hourly Weather History & Observations

Time (CDT) Temp. Windchill Dew Point Humidity Pressure Visibility Wind Dir Wind Speed Gust Speed Precip Events Conditions
12:15 AM 51.8 °F - 37.4 °F 58% 29.86 in 10.0 mi NW 6.9 mph - N/A   Overcast
12:35 AM 51.8 °F - 39.2 °F 62% 29.86 in 10.0 mi NNW 4.6 mph - N/A   Mostly Cloudy
12:55 AM 51.8 °F - 39.2 °F 62% 29.87 in 10.0 mi NNW 8.1 mph - N/A   Mostly Cloudy
1:15 AM 51.8 °F - 39.2 °F 62% 29.87 in 10.0 mi NW 4.6 mph - N/A   Overcast
1:35 AM 51.8 °F - 39.2 °F 62% 29.87 in 10.0 mi NNW 8.1 mph - N/A   Mostly Cloudy
1:55 AM 50.0 °F - 39.2 °F 66% 29.87 in 10.0 mi NW 5.8 mph - N/A   Scattered Clouds
2:15 AM 48.2 °F - 41.0 °F 76% 29.87 in 10.0 mi NW 8.1 mph - N/A   Scattered Clouds
2:35 AM 48.2 °F - 39.2 °F 71% 29.87 in 10.0 mi NW 6.9 mph - N/A   Clear
2:55 AM 48.2 °F - 39.2 °F 71% 29.87 in 10.0 mi NW 4.6 mph - N/A   Clear
3:15 AM 46.4 °F 43.5 °F 39.2 °F 76% 29.87 in 10.0 mi WNW 5.8 mph - N/A   Scattered Clouds
3:35 AM 46.4 °F 42.4 °F 39.2 °F 76% 29.87 in 10.0 mi WNW 8.1 mph - N/A   Scattered Clouds
4:15 AM 44.6 °F 41.4 °F 37.4 °F 76% 29.87 in 10.0 mi WNW 5.8 mph - N/A   Clear
4:35 AM 44.6 °F 41.4 °F 37.4 °F 76% 29.88 in 10.0 mi NW 5.8 mph - N/A   Unknown
4:55 AM 44.6 °F 39.7 °F 37.4 °F 76% 29.89 in 10.0 mi NW 9.2 mph - N/A   Clear
5:15 AM 44.6 °F 40.7 °F 37.4 °F 76% 29.89 in 10.0 mi NW 6.9 mph - N/A   Clear
5:35 AM 44.6 °F 41.4 °F 35.6 °F 71% 29.89 in 10.0 mi NW 5.8 mph - N/A   Clear
5:55 AM 42.8 °F 38.0 °F 35.6 °F 76% 29.90 in 10.0 mi NW 8.1 mph - N/A   Clear
6:15 AM 44.6 °F 40.2 °F 35.6 °F 71% 29.90 in 10.0 mi NW 8.1 mph - N/A   Clear
6:35 AM 42.8 °F 38.6 °F 35.6 °F 76% 29.91 in 10.0 mi NW 6.9 mph - N/A   Clear
6:55 AM 42.8 °F 37.0 °F 35.6 °F 76% 29.93 in 10.0 mi NW 10.4 mph - N/A   Clear
7:15 AM 44.6 °F 37.8 °F 35.6 °F 71% 29.94 in 10.0 mi NNW 15.0 mph 19.6 mph N/A   Clear
7:35 AM 44.6 °F 37.2 °F 35.6 °F 71% 29.95 in 10.0 mi NNW 17.3 mph 23.0 mph N/A   Scattered Clouds
7:55 AM 46.4 °F 40.1 °F 37.4 °F 71% 29.96 in 10.0 mi NW 15.0 mph 23.0 mph N/A Rain Light Rain
8:15 AM 44.6 °F 38.8 °F 37.4 °F 76% 29.98 in 10.0 mi NW 11.5 mph 19.6 mph N/A Rain Light Rain
8:35 AM 44.6 °F 40.2 °F 37.4 °F 76% 29.97 in 10.0 mi North 8.1 mph - N/A Rain Light Rain
8:55 AM 44.6 °F 40.7 °F 39.2 °F 81% 29.97 in 10.0 mi NW 6.9 mph - N/A   Mostly Cloudy
9:15 AM 44.6 °F 40.2 °F 39.2 °F 81% 29.98 in 10.0 mi NW 8.1 mph - N/A   Scattered Clouds
9:35 AM 46.4 °F 40.7 °F 37.4 °F 71% 29.98 in 10.0 mi NNW 12.7 mph 18.4 mph N/A   Scattered Clouds
9:55 AM 48.2 °F - 37.4 °F 66% 29.98 in 10.0 mi NW 11.5 mph - N/A   Unknown
10:15 AM 50.0 °F - 37.4 °F 62% 29.99 in 10.0 mi NNW 13.8 mph - N/A   Unknown
10:35 AM 50.0 °F - 37.4 °F 62% 29.99 in 10.0 mi NW 16.1 mph 21.9 mph N/A   Unknown
10:55 AM 50.0 °F - 37.4 °F 62% 29.99 in 10.0 mi NW 12.7 mph 20.7 mph N/A   Unknown
11:15 AM 51.8 °F - 37.4 °F 58% 30.00 in 10.0 mi NW 12.7 mph 23.0 mph N/A   Scattered Clouds
11:35 AM 51.8 °F - 35.6 °F 54% 30.00 in 10.0 mi NW 13.8 mph 26.5 mph N/A   Mostly Cloudy
11:55 AM 51.8 °F - 35.6 °F 54% 30.00 in 10.0 mi NNW 16.1 mph 23.0 mph N/A   Mostly Cloudy
12:15 PM 53.6 °F - 35.6 °F 51% 30.00 in 10.0 mi NNW 16.1 mph 27.6 mph N/A   Mostly Cloudy
12:35 PM 53.6 °F - 35.6 °F 51% 30.01 in 10.0 mi NW 17.3 mph 24.2 mph N/A   Mostly Cloudy
12:55 PM 53.6 °F - 35.6 °F 51% 30.01 in 10.0 mi NNW 17.3 mph 25.3 mph N/A   Mostly Cloudy
1:15 PM 53.6 °F - 35.6 °F 51% 30.01 in 10.0 mi NNW 15.0 mph 27.6 mph N/A   Mostly Cloudy
1:35 PM 53.6 °F - 33.8 °F 47% 30.00 in 10.0 mi NNW 17.3 mph 23.0 mph N/A   Mostly Cloudy
1:55 PM 53.6 °F - 35.6 °F 51% 30.01 in 10.0 mi NNW 19.6 mph 25.3 mph N/A Rain Light Rain
2:15 PM 53.6 °F - 33.8 °F 47% 30.01 in 10.0 mi NNW 17.3 mph 25.3 mph N/A   Mostly Cloudy
2:55 PM 55.4 °F - 33.8 °F 44% 30.01 in 10.0 mi North 17.3 mph 23.0 mph N/A   Mostly Cloudy
3:15 PM 55.4 °F - 33.8 °F 44% 30.01 in 10.0 mi NNW 16.1 mph 25.3 mph N/A   Mostly Cloudy
3:35 PM 55.4 °F - 32.0 °F 41% 30.01 in 10.0 mi NNW 18.4 mph 21.9 mph N/A   Mostly Cloudy
4:15 PM 55.4 °F - 32.0 °F 41% 30.01 in 10.0 mi NNW 13.8 mph 20.7 mph N/A   Mostly Cloudy
4:35 PM 55.4 °F - 32.0 °F 41% 30.01 in 10.0 mi NNW 19.6 mph 25.3 mph N/A   Scattered Clouds
4:55 PM 57.2 °F - 32.0 °F 38% 30.01 in 10.0 mi NNW 18.4 mph 23.0 mph N/A   Scattered Clouds
5:15 PM 57.2 °F - 30.2 °F 36% 30.01 in 10.0 mi NNW 18.4 mph 23.0 mph N/A   Scattered Clouds
5:35 PM 57.2 °F - 28.4 °F 33% 30.02 in 10.0 mi NNW 15.0 mph 21.9 mph N/A   Scattered Clouds
5:55 PM 59.0 °F - 28.4 °F 31% 30.02 in 10.0 mi NNW 18.4 mph 26.5 mph N/A   Scattered Clouds
6:15 PM 55.4 °F - 28.4 °F 36% 30.03 in 10.0 mi NNW 10.4 mph - N/A   Scattered Clouds
6:35 PM 57.2 °F - 28.4 °F 33% 30.03 in 10.0 mi NNW 17.3 mph - N/A   Scattered Clouds
6:55 PM 57.2 °F - 26.6 °F 31% 30.03 in 10.0 mi NNW 11.5 mph 17.3 mph N/A   Unknown
7:15 PM 55.4 °F - 26.6 °F 33% 30.03 in 10.0 mi NNW 9.2 mph - N/A   Clear
7:35 PM 55.4 °F - 26.6 °F 33% 30.04 in 10.0 mi NW 8.1 mph - N/A   Clear
7:55 PM 53.6 °F - 26.6 °F 35% 30.04 in 10.0 mi NW 4.6 mph - N/A   Clear
8:15 PM 53.6 °F - 26.6 °F 35% 30.05 in 10.0 mi WNW 4.6 mph - N/A   Clear
8:35 PM 51.8 °F - 28.4 °F 41% 30.06 in 10.0 mi Calm Calm - N/A   Clear
8:55 PM 50.0 °F - 28.4 °F 43% 30.06 in 10.0 mi WNW 3.5 mph - N/A   Clear
9:15 PM 44.6 °F 43.1 °F 30.2 °F 57% 30.07 in 10.0 mi West 3.5 mph - N/A   Unknown
9:35 PM 44.6 °F - 30.2 °F 57% 30.09 in 10.0 mi Calm Calm - N/A   Clear
10:15 PM 42.8 °F - 32.0 °F 66% 30.09 in 10.0 mi Calm Calm - N/A   Clear
10:35 PM 42.8 °F - 32.0 °F 66% 30.09 in 10.0 mi Calm Calm - N/A   Clear
10:55 PM 41.0 °F - 32.0 °F 70% 30.09 in 10.0 mi Calm Calm - N/A   Clear
11:15 PM 39.2 °F - 32.0 °F 75% 30.09 in 10.0 mi Calm Calm - N/A   Clear
11:35 PM 39.2 °F - 32.0 °F 75% 30.09 in 10.0 mi Calm Calm - N/A   Clear
11:55 PM 37.4 °F - 30.2 °F 75% 30.09 in 10.0 mi Calm Calm - N/A   Clear